Weather in Lumbarda

Croatia     42°55′31″N   17°09′57″E
temp.,
°C
wind,
m/s
gust,
m/s
humid.,
%
clouds,
%
prec.,
mm/h
press.,
hPa
HPBL,
m
18 may, tue
tue1823:00+18nw23810 0.3 1010109
02:00+18nnw22730 0.3 101150
05:00+16nne12700 0.0 1011107
08:00+16ne22680 0.0 1013169
11:00+17w22620 0.0 1015198
14:00+18w34570 0.0 1015339
17:00+19wnw345868 0.0 1014368
20:00+18nne116359 0.0 101350
19 may, wed
wed1923:00+18e3363100 0.0 101487
02:00+17ese566898 0.0 1013321
05:00+16e596725 0.0 1012502
08:00+17ese596667 0.0 1012626
11:00+18sse6772100 0.0 1012802
14:00+18s566961 0.1 1012599
17:00+17nw557064 0.1 1012557
20:00+15nnw347690 0.1 1012276
20 may, thu
thu2023:00+16w567396 0.1 10131018
02:00+15nw1273100 0.3 1012433
05:00+15nnw227213 0.3 1012290
08:00+15nne44645 0.4 1013350
11:00+17nw13500 0.0 1015514
14:00+19w345136 0.0 1014368
17:00+20nnw10125017 0.0 1014531
20:00+18nnw79544 0.0 1016643
21 may, fri
fri2123:00+17n79525 0.0 1018770
02:00+15n34550 0.0 1019317
05:00+14ne22600 0.0 1019222
08:00+14ne22580 0.0 1020240
11:00+16ssw11565 0.0 1020213
14:00+18w34525 0.0 1019321
17:00+18w465720 0.0 1018519
20:00+18wnw3565100 0.0 1018188
22 may, sat
sat2223:00+18n12655 0.0 101745
02:00+17ene32685 0.0 1016109
05:00+16ene33705 0.0 1016167
08:00+16e4468100 0.0 1016249
11:00+18se56694 0.0 1017431
14:00+18sse686788 0.0 1016439
17:00+19se79687 0.0 1015395
20:00+19se6106480 0.0 1014272